Lid_Strength_Index
1 1 1 1 1 1 1 2 3 6 5 3 3 1 0 0 -0 1 1 -0 -0 1 1 1 1 1 1 1 1 1 1 2 2 2 2 2 1 1
1 1 1 1 1 1 1 2 2 3 5 2 2 1 1 1 0 1 1 -0 0 1 1 1 1 2 2 2 2 2 2 1 2 2 1 1 2 2
1 1 1 1 2 1 2 2 2 2 4 3 2 2 2 2 2 2 1 2 2 1 1 1 2 2 2 2 2 2 2 2 2 2 2 2 2 2
2 2 2 2 2 2 2 2 2 3 3 5 3 3 3 3 3 3 3 2 2 1 1 2 2 3 3 3 3 3 3 3 3 3 3 3 2 2
3 3 3 3 3 2 2 3 3 3 3 4 5 4 4 4 4 4 4 3 2 1 2 2 2 3 3 3 3 3 4 4 5 5 4 4 3 3
3 3 3 3 3 3 3 4 4 4 5 5 5 5 5 4 4 6 6 4 4 3 2 3 3 2 3 3 3 2 4 5 5 6 6 6 5 5
4 3 2 2 3 4 5 5 5 6 5 5 6 5 6 5 6 6 7 6 6 5 4 4 3 3 3 3 2 2 4 4 5 6 6 7 7 6
4 3 3 2 4 5 5 5 5 7 6 6 6 6 6 7 7 7 7 8 9 5 5 5 4 4 4 3 3 5 5 5 6 6 6 6 6 7
4 4 4 4 7 7 6 6 5 4 5 6 8 7 8 7 7 8 8 8 8 6 6 6 5 5 4 3 4 5 5 6 6 6 7 6 7 7
5 5 5 5 8 9 8 6 4 5 6 7 7 7 6 6 7 7 8 7 6 6 5 7 5 5 4 3 4 4 5 5 6 6 7 7 8 8
7 7 8 8 9 9 9 8 7 8 7 7 7 7 8 9 8 8 9 9 10 9 5 6 6 6 5 4 2 4 5 5 5 6 7 8 9 9
8 7 8 9 10 10 9 10 10 10 10 8 8 8 8 8 7 8 9 12 12 11 5 7 6 6 7 5 3 3 3 4 5 5 7 8 10 6
9 9 8 9 10 11 11 10 10 10 10 9 9 10 10 9 9 10 10 11 13 13 9 8 7 6 6 6 4 4 3 3 2 2 6 9 10 9
11 10 9 10 11 11 11 10 11 11 9 9 9 10 11 11 11 11 11 12 12 12 10 8 8 6 6 6 6 4 3 2 2 2 3 7 9 9
10 10 10 11 11 10 10 11 10 10 10 9 10 11 11 11 11 12 13 13 11 10 8 6 6 4 4 5 5 5 3 3 3 3 4 4 4 4
10 10 9 10 11 10 9 9 8 9 9 10 11 12 12 13 13 14 15 14 13 10 8 7 6 4 4 4 4 4 3 4 4 4 4 4 3 2
11 8 10 10 9 9 9 9 9 9 10 10 12 13 13 14 15 15 14 14 13 12 11 9 7 5 4 5 5 4 4 5 5 4 4 4 4 3
9 9 10 10 10 10 10 10 10 9 10 10 12 13 15 15 16 15 14 13 13 12 11 10 9 8 6 8 8 9 7 6 4 4 4 5 6 6
10 11 11 11 11 10 10 10 10 10 10 10 12 13 14 15 15 15 13 13 13 12 11 10 9 6 6 6 9 10 11 9 4 7 8 8 7 10
9 10 10 10 10 10 10 10 10 10 11 11 12 12 14 15 15 14 13 13 13 12 10 8 7 4 4 5 7 8 11 10 7 7 9 10 12 11
10 10 10 9 10 10 10 11 11 11 12 12 12 12 14 15 15 14 13 13 13 12 11 9 6 10 5 6 8 10 10 11 11 11 9 8 9 9
9 9 9 9 10 10 11 11 11 12 13 13 13 12 14 14 14 14 14 14 13 12 11 10 4 4 7 9 10 11 11 11 11 11 11 11 9 9
9 9 9 10 10 10 11 12 12 13 14 14 13 13 13 14 13 14 14 13 14 13 13 11 6 8 9 10 12 12 13 13 13 14 14 12 11 11